Theta_e
339 329 325 319 319 321 324 322 315 305 305 310 300 305 306 307 307 303 302 310 315 315 315 309 306 306 305 305 304 304 305 305 306 306 307 307 308 308
330 324 320 316 316 315 317 315 314 309 305 300 304 306 305 305 305 302 302 313 312 313 312 308 308 307 306 305 303 303 304 304 304 304 305 305 305 306
324 317 313 313 310 309 309 309 306 303 299 300 304 304 302 301 302 300 305 302 301 310 311 310 309 308 307 306 302 302 303 303 303 303 304 304 304 304
318 315 312 312 309 308 308 304 303 302 301 300 300 301 301 298 300 297 299 304 298 307 312 310 309 307 307 303 302 302 302 300 301 302 302 303 303 303
308 310 312 310 308 305 303 302 303 302 299 300 300 300 297 297 294 295 295 296 300 309 310 310 307 306 304 302 302 301 300 300 300 300 301 301 301 301
306 305 305 305 305 305 304 302 302 300 300 298 297 296 294 292 293 291 291 293 295 303 304 306 305 306 304 302 302 302 300 299 299 299 299 299 299 299
305 304 305 307 307 305 303 302 300 300 299 296 294 292 288 288 289 290 291 291 293 296 296 296 295 295 298 300 300 300 300 299 299 299 299 299 298 298
303 303 304 305 304 304 305 306 303 298 294 293 291 289 288 289 289 289 289 288 288 295 292 292 294 294 297 298 300 300 299 299 298 299 299 299 298 298
299 299 300 301 300 300 302 302 302 301 298 293 291 290 289 289 289 288 289 289 289 292 291 289 292 292 297 298 300 300 299 298 298 298 298 298 298 297
298 298 297 297 297 297 295 295 294 294 295 295 292 291 292 291 289 290 290 290 292 292 295 288 295 294 292 297 300 300 299 298 298 298 298 297 297 297
295 297 298 296 298 296 294 292 290 291 299 299 297 295 294 294 293 290 290 290 288 292 297 292 294 294 291 295 297 299 298 298 297 297 297 297 297 298
294 294 297 297 296 297 295 293 291 292 292 293 294 294 294 293 299 291 292 292 289 291 296 293 294 293 290 295 296 297 296 297 296 296 296 296 296 296
293 292 293 295 293 293 294 290 290 292 295 292 291 291 291 291 294 296 298 294 289 288 297 296 294 292 292 291 294 296 296 295 295 295 295 295 295 295
291 291 292 292 292 292 291 292 294 295 292 291 289 289 290 290 294 297 299 295 296 293 297 297 295 293 291 291 290 294 296 295 295 294 294 294 295 295
292 292 292 292 293 294 294 294 295 293 290 289 288 287 290 291 293 297 299 296 298 296 297 296 294 295 293 291 291 292 293 294 295 294 293 293 292 293
294 293 295 294 295 295 294 294 294 292 290 289 289 289 289 290 292 296 292 294 295 295 297 298 291 295 294 294 293 292 294 291 294 294 293 292 293 293
293 293 293 292 292 292 292 292 291 292 291 290 289 288 288 288 290 292 291 294 293 293 293 295 294 295 295 295 292 292 293 294 294 294 293 290 292 292
293 292 291 291 290 290 289 289 290 292 290 291 290 290 288 288 289 291 291 293 292 292 293 293 292 292 293 296 297 292 294 294 295 294 293 290 289 292
292 291 290 290 289 288 288 289 290 289 290 290 289 290 290 288 288 290 290 293 292 293 293 294 291 290 288 287 292 297 292 295 295 293 293 292 290 291
292 291 289 289 288 288 288 288 289 289 289 289 289 289 288 287 287 287 288 290 292 293 294 294 292 290 286 286 286 290 293 295 294 293 293 294 292 294
290 289 289 288 288 288 289 289 288 288 288 287 287 287 288 286 286 286 286 288 291 293 292 292 293 288 293 294 291 292 295 297 297 295 294 293 291 291
290 289 290 289 289 289 288 288 287 286 286 287 285 285 287 286 286 286 286 286 290 292 293 295 295 295 293 291 290 293 294 296 298 298 297 295 293 289
288 288 287 286 286 287 288 287 287 286 284 285 286 285 285 286 286 286 286 287 290 292 293 293 293 293 291 291 290 293 294 295 296 296 296 296 296 296
Wind_Speed
9 3 2 5 5 2 5 7 8 5 4 2 3 3 3 3 1 1 4 8 10 11 10 9 9 13 11 9 8 10 13 16 21 21 19 20 19 19
4 9 10 8 7 3 3 6 4 5 4 3 2 4 2 1 2 3 5 8 12 10 7 9 12 13 12 9 6 8 12 16 20 20 19 18 18 17
6 9 8 8 6 5 2 4 5 3 7 2 3 3 3 1 3 4 4 4 5 7 8 11 11 11 12 6 3 6 11 18 21 19 19 18 17 15
5 10 10 8 9 8 5 6 3 3 7 9 3 3 4 3 2 4 5 5 5 9 7 11 11 11 6 9 6 8 13 18 18 19 20 19 17 15
14 14 8 2 6 8 8 8 5 1 4 5 4 3 4 4 4 5 5 5 6 14 3 8 7 6 10 7 8 13 15 17 18 19 19 19 17 15
14 16 14 11 7 9 2 8 8 7 5 7 7 4 3 2 4 4 5 4 6 6 8 12 13 6 9 9 14 17 17 17 18 19 19 18 16 14
9 20 15 14 19 16 8 9 5 6 8 8 7 3 2 4 4 2 2 3 2 5 4 4 4 4 4 8 9 15 17 19 19 19 18 17 15 13
12 15 16 21 17 18 11 8 5 10 10 8 5 5 2 3 2 2 1 2 4 4 3 3 5 5 3 4 12 17 19 20 19 20 20 20 14 9
14 13 10 12 12 11 12 17 17 15 12 10 9 4 4 2 1 4 3 3 2 4 1 3 4 5 2 5 17 18 19 20 19 20 20 20 13 8
12 14 8 11 5 6 8 10 9 6 6 6 7 6 5 2 3 3 2 2 2 2 8 4 4 7 3 3 16 19 18 19 19 21 21 20 14 9
9 13 3 3 6 6 8 9 7 4 5 10 10 10 4 4 2 3 5 4 3 3 8 2 5 7 2 3 6 15 18 18 19 20 21 22 17 9
10 9 8 2 7 5 6 5 7 2 4 6 6 3 3 4 2 2 2 6 3 3 5 3 6 5 3 2 7 6 8 16 17 18 19 21 19 6
12 6 4 7 8 12 5 4 4 4 8 7 5 4 4 4 5 5 7 7 3 1 6 3 4 5 2 4 4 5 7 8 8 9 16 17 16 12
10 3 2 7 8 8 7 7 8 9 7 5 5 4 3 5 4 5 6 4 5 4 5 5 3 4 4 3 4 5 5 6 7 8 8 12 14 15
3 4 8 5 9 14 16 16 13 8 6 5 5 4 2 4 6 3 4 4 5 4 5 6 4 3 2 3 5 6 5 3 7 7 7 8 8 7
4 4 5 9 13 10 10 10 7 5 5 6 4 4 4 4 4 3 5 4 3 5 7 9 6 5 3 5 5 6 6 5 6 7 6 6 6 7
0 2 4 7 8 9 9 7 6 7 9 7 7 5 4 4 4 4 3 4 3 5 7 7 8 7 5 4 5 7 5 4 4 7 4 6 7 8
0 5 7 6 6 6 6 4 6 8 6 7 5 6 5 5 3 4 4 3 3 3 6 4 5 4 3 3 9 7 6 6 6 7 5 5 8 8
8 8 8 8 6 5 4 6 7 5 6 6 6 7 6 4 5 3 3 3 3 2 3 4 3 3 5 5 4 9 5 6 4 6 6 6 6 7
8 9 8 6 4 4 6 4 4 6 5 6 7 7 6 4 4 3 3 3 3 3 4 5 3 3 0 1 2 4 10 7 6 6 4 6 3 8
7 6 6 4 4 4 6 6 5 5 6 5 5 5 5 4 5 4 4 6 5 3 3 4 3 6 3 1 2 3 4 10 11 8 6 4 6 6
7 7 6 6 6 7 8 8 7 5 5 5 5 5 6 4 4 5 5 4 4 4 3 3 6 6 5 4 3 3 4 3 6 15 17 15 5 5
9 9 9 9 8 9 9 9 9 6 5 5 5 5 5 5 5 5 5 5 4 4 5 6 5 4 5 4 4 4 5 5 3 4 5 11 14 15
Wind_Direction
206 66 147 71 356 338 137 159 143 154 192 173 116 78 96 88 25 239 286 298 302 295 288 183 233 260 271 286 314 339 335 338 338 337 329 327 323 319
151 157 151 151 139 288 153 134 117 122 142 163 101 146 141 123 241 271 293 315 308 299 183 196 234 255 271 285 322 344 338 335 335 333 329 326 322 318
148 142 130 139 128 123 97 101 117 127 125 92 135 158 112 176 334 339 342 347 322 323 211 229 244 263 272 293 68 6 339 342 334 335 334 325 322 320
159 150 140 133 144 143 143 100 114 117 122 128 143 98 86 31 46 30 9 10 344 334 238 244 263 272 333 103 72 6 349 341 334 333 329 327 326 325
51 25 11 342 139 141 112 118 118 85 98 123 93 62 81 35 19 18 4 348 346 348 348 36 40 38 118 101 31 4 351 342 337 329 325 323 322 317
114 88 62 352 55 6 15 144 133 124 111 90 93 92 70 343 47 42 344 16 2 359 11 36 38 73 127 54 17 360 351 343 336 331 327 323 316 306
114 120 105 104 49 51 29 5 353 106 93 93 82 82 42 36 39 302 336 312 21 17 343 23 14 4 47 42 11 360 353 348 342 336 334 327 310 292
104 93 104 101 98 90 90 89 62 99 97 95 107 98 65 61 349 328 292 356 5 347 313 319 27 6 54 33 8 3 357 353 346 344 343 340 338 315
106 109 106 99 100 103 90 80 73 72 98 128 119 121 96 101 313 343 340 54 151 280 348 350 5 352 321 6 12 358 359 354 350 351 351 352 347 344
96 82 101 105 130 108 116 109 96 103 113 117 114 114 112 146 159 200 237 58 242 330 26 20 317 334 321 27 2 356 356 350 354 358 358 1 358 7
82 85 53 128 110 186 121 111 109 106 97 103 96 104 123 254 230 15 24 60 337 34 14 325 329 326 357 340 353 2 353 350 354 2 6 9 8 2
67 46 44 72 157 140 101 146 108 117 103 64 51 38 241 292 288 173 46 66 37 13 344 353 347 350 353 332 342 340 346 354 353 359 9 12 12 4
82 44 38 99 98 85 97 88 92 96 81 79 78 57 40 38 64 84 77 85 68 16 343 347 358 350 346 297 324 347 345 353 357 356 3 8 11 24
94 120 125 80 80 76 64 76 70 73 69 68 61 41 31 45 67 84 94 117 85 92 332 2 31 31 339 305 339 318 334 354 359 357 359 3 7 13
135 130 96 68 56 64 60 57 55 58 56 57 60 44 13 20 84 115 110 81 88 60 25 17 357 322 0 351 332 334 333 8 1 0 3 8 6 359
112 42 78 79 69 56 50 47 49 50 67 57 41 23 19 29 69 46 39 6 40 11 10 20 6 343 341 5 328 342 353 18 357 2 4 10 11 14
144 65 65 67 63 61 54 46 37 43 49 40 37 4 10 52 48 45 39 14 42 26 8 10 355 358 8 8 351 349 344 4 3 356 358 18 19 14
57 82 76 76 76 73 63 42 44 50 45 44 31 16 10 32 65 28 17 25 30 47 24 14 356 352 352 4 36 355 1 11 27 22 10 30 32 20
84 90 86 78 69 70 85 68 60 40 46 38 27 22 6 5 41 36 5 13 12 94 18 12 15 9 10 13 310 356 354 9 6 46 32 35 40 31
97 91 85 85 82 65 69 105 70 49 41 35 26 15 7 359 16 18 2 350 10 22 49 8 3 356 8 269 295 299 337 10 9 13 30 43 49 31
71 69 76 91 90 88 81 75 77 64 48 36 20 12 351 7 11 20 2 8 15 31 65 20 339 303 278 270 331 333 335 23 35 30 2 42 48 39
71 72 71 69 74 69 60 54 48 44 43 31 12 9 4 8 1 22 20 13 3 37 39 5 15 4 17 6 344 1 347 352 38 42 46 46 27 61
74 70 64 62 55 52 53 48 42 29 18 358 24 12 5 0 359 13 23 3 8 33 53 25 17 13 6 4 2 13 9 5 2 43 49 61 57 56